Location: ?????
(33.6267°N, 35.4675°E)
Time: 02:11:56
(UTC+00:00)

Cosmos 2016 Rocket - Pass Details

Date: 12 November 2019
Orbit: 947 x 1000 km, 83.0° (Epoch: 09 December)

Event Time Altitude Azimuth Distance (km) Brightness Sun altitude
Rises 14:58:04 0° 351° (N) 3,727 7.0 -4.9°
Reaches altitude 10° 15:00:37 10° 349° (N) 2,775 6.3 -5.4°
Maximum altitude 15:06:57 71° 267° (W) 1,052 4.5 -6.6°
Drops below altitude 10° 15:13:13 10° 184° (S) 2,745 6.6 -7.9°
Sets 15:15:44 0° 182° (S) 3,685 7.3 -8.4°
